Time,TemperatureF,DewpointF,PressureIn,WindDirection,WindDirectionDegrees,WindSpeedMPH,WindSpeedGustMPH,Humidity,HourlyPrecipIn,Conditions,Clouds,dailyrainin,SoftwareType,DateUTC
2013-08-19 00:06:00,75.4,59.1,29.89,ESE,112,0.0,-999.0,57,-99.99,,,0.00,Acu-Link.com,2013-08-19 05:06:00,
2013-08-19 00:21:00,74.7,58.9,29.89,ENE,67,0.0,-999.0,58,-99.99,,,0.00,Acu-Link.com,2013-08-19 05:21:00,
2013-08-19 00:37:00,74.1,58.8,29.89,NE,45,0.0,-999.0,59,-99.99,,,0.00,Acu-Link.com,2013-08-19 05:37:00,
2013-08-19 00:52:00,73.4,58.7,29.88,East,90,0.0,-999.0,60,-99.99,,,0.00,Acu-Link.com,2013-08-19 05:52:00,
2013-08-19 01:07:00,73.4,58.2,29.88,ENE,67,1.7,-999.0,59,-99.99,,,0.00,Acu-Link.com,2013-08-19 06:07:00,
2013-08-19 01:22:00,73.8,59.0,29.88,ESE,112,0.0,-999.0,60,-99.99,,,0.00,Acu-Link.com,2013-08-19 06:22:00,
2013-08-19 01:38:00,72.0,59.6,29.88,ENE,67,0.0,-999.0,65,-99.99,,,0.00,Acu-Link.com,2013-08-19 06:38:00,
2013-08-19 01:53:00,70.7,58.8,29.88,NE,45,0.0,-999.0,66,-99.99,,,0.00,Acu-Link.com,2013-08-19 06:53:00,
2013-08-19 02:08:00,69.3,59.5,29.88,SSW,202,2.2,-999.0,71,-99.99,,,0.00,Acu-Link.com,2013-08-19 07:08:00,
2013-08-19 02:24:00,68.7,58.9,29.88,WSW,247,0.0,-999.0,71,-99.99,,,0.00,Acu-Link.com,2013-08-19 07:24:00,
2013-08-19 02:39:00,68.7,58.1,29.88,SW,225,0.0,-999.0,69,-99.99,,,0.00,Acu-Link.com,2013-08-19 07:39:00,
2013-08-19 02:54:00,68.0,58.6,29.88,SW,225,1.1,-999.0,72,-99.99,,,0.00,Acu-Link.com,2013-08-19 07:54:00,
2013-08-19 03:09:00,68.2,58.4,29.88,South,180,0.0,-999.0,71,-99.99,,,0.00,Acu-Link.com,2013-08-19 08:09:00,
2013-08-19 03:25:00,68.2,58.4,29.88,SW,225,0.0,-999.0,71,-99.99,,,0.00,Acu-Link.com,2013-08-19 08:25:00,
2013-08-19 03:40:00,68.0,58.6,29.89,SSE,157,0.0,-999.0,72,-99.99,,,0.00,Acu-Link.com,2013-08-19 08:40:00,
2013-08-19 03:55:00,67.5,59.3,29.88,West,270,0.0,-999.0,75,-99.99,,,0.00,Acu-Link.com,2013-08-19 08:55:00,
2013-08-19 04:10:00,67.3,59.5,29.88,SSE,157,0.0,-999.0,76,-99.99,,,0.00,Acu-Link.com,2013-08-19 09:10:00,
2013-08-19 04:25:00,66.7,59.6,29.89,SSE,157,0.0,-999.0,78,-99.99,,,0.00,Acu-Link.com,2013-08-19 09:25:00,
2013-08-19 04:40:00,66.6,59.5,29.89,SSE,157,0.0,-999.0,78,-99.99,,,0.00,Acu-Link.com,2013-08-19 09:40:00,
2013-08-19 04:55:00,66.4,59.3,29.89,SE,135,0.0,-999.0,78,-99.99,,,0.00,Acu-Link.com,2013-08-19 09:55:00,
2013-08-19 05:11:00,66.2,58.8,29.89,SE,135,0.0,-999.0,77,-99.99,,,0.00,Acu-Link.com,2013-08-19 10:11:00,
2013-08-19 05:26:00,66.2,59.1,29.88,SE,135,0.0,-999.0,78,-99.99,,,0.00,Acu-Link.com,2013-08-19 10:26:00,
2013-08-19 05:41:00,66.4,59.3,29.88,SE,135,0.0,-999.0,78,-99.99,,,0.00,Acu-Link.com,2013-08-19 10:41:00,
2013-08-19 05:57:00,66.0,59.6,29.89,SE,135,0.0,-999.0,80,-99.99,,,0.00,Acu-Link.com,2013-08-19 10:57:00,
2013-08-19 06:12:00,65.8,60.1,29.89,SE,135,2.7,-999.0,82,-99.99,,,0.00,Acu-Link.com,2013-08-19 11:12:00,
2013-08-19 06:27:00,65.5,59.5,29.90,ESE,112,0.0,-999.0,81,-99.99,,,0.00,Acu-Link.com,2013-08-19 11:27:00,
2013-08-19 06:43:00,65.5,59.9,29.91,ESE,112,0.0,-999.0,82,-99.99,,,0.00,Acu-Link.com,2013-08-19 11:43:00,
2013-08-19 06:58:00,65.1,59.8,29.91,ESE,112,0.0,-999.0,83,-99.99,,,0.00,Acu-Link.com,2013-08-19 11:58:00,
2013-08-19 07:13:00,65.1,59.8,29.91,SSW,202,0.0,-999.0,83,-99.99,,,0.00,Acu-Link.com,2013-08-19 12:13:00,
2013-08-19 07:28:00,65.7,60.0,29.92,ESE,112,0.0,-999.0,82,-99.99,,,0.00,Acu-Link.com,2013-08-19 12:28:00,
2013-08-19 07:43:00,66.4,61.4,29.92,East,90,0.0,-999.0,84,-99.99,,,0.00,Acu-Link.com,2013-08-19 12:43:00,
2013-08-19 07:58:00,69.6,62.1,29.92,East,90,0.0,-999.0,77,-99.99,,,0.00,Acu-Link.com,2013-08-19 12:58:00,
2013-08-19 08:14:00,74.3,63.0,29.93,East,90,0.0,-999.0,68,-99.99,,,0.00,Acu-Link.com,2013-08-19 13:14:00,
2013-08-19 08:29:00,77.4,64.2,29.93,SSW,202,1.7,-999.0,64,-99.99,,,0.00,Acu-Link.com,2013-08-19 13:29:00,
2013-08-19 08:44:00,80.6,64.9,29.93,ESE,112,1.7,-999.0,59,-99.99,,,0.00,Acu-Link.com,2013-08-19 13:44:00,
2013-08-19 09:00:00,84.0,66.1,29.94,ESE,112,2.7,-999.0,55,-99.99,,,0.00,Acu-Link.com,2013-08-19 14:00:00,
2013-08-19 09:15:00,87.8,66.2,29.94,NNE,22,2.7,-999.0,49,-99.99,,,0.00,Acu-Link.com,2013-08-19 14:15:00,
2013-08-19 09:30:00,89.6,66.0,29.94,West,270,1.1,-999.0,46,-99.99,,,0.00,Acu-Link.com,2013-08-19 14:30:00,
2013-08-19 09:46:00,91.9,66.2,29.94,WSW,247,2.7,-999.0,43,-99.99,,,0.00,Acu-Link.com,2013-08-19 14:46:00,
2013-08-19 10:01:00,93.9,66.6,29.94,ESE,112,2.7,-999.0,41,-99.99,,,0.00,Acu-Link.com,2013-08-19 15:01:00,
2013-08-19 10:16:00,92.5,65.3,29.94,ESE,112,2.7,-999.0,41,-99.99,,,0.00,Acu-Link.com,2013-08-19 15:16:00,
2013-08-19 10:31:00,88.7,64.6,29.93,ESE,112,3.2,-999.0,45,-99.99,,,0.00,Acu-Link.com,2013-08-19 15:31:00,
2013-08-19 10:47:00,89.1,64.3,29.93,East,90,7.3,-999.0,44,-99.99,,,0.00,Acu-Link.com,2013-08-19 15:47:00,
2013-08-19 11:02:00,89.8,62.9,29.94,SE,135,3.2,-999.0,41,-99.99,,,0.00,Acu-Link.com,2013-08-19 16:02:00,
2013-08-19 11:17:00,89.6,61.3,29.93,ESE,112,5.8,-999.0,39,-99.99,,,0.00,Acu-Link.com,2013-08-19 16:17:00,
2013-08-19 11:32:00,90.3,61.9,29.93,SSE,157,6.3,-999.0,39,-99.99,,,0.00,Acu-Link.com,2013-08-19 16:32:00,
2013-08-19 11:48:00,90.5,61.4,29.93,ESE,112,2.2,-999.0,38,-99.99,,,0.00,Acu-Link.com,2013-08-19 16:48:00,
2013-08-19 12:03:00,91.4,62.9,29.93,NNE,22,4.7,-999.0,39,-99.99,,,0.00,Acu-Link.com,2013-08-19 17:03:00,
2013-08-19 12:18:00,92.8,62.7,29.92,ESE,112,2.2,-999.0,37,-99.99,,,0.00,Acu-Link.com,2013-08-19 17:18:00,
2013-08-19 12:33:00,92.1,62.8,29.92,East,90,3.2,-999.0,38,-99.99,,,0.00,Acu-Link.com,2013-08-19 17:33:00,
2013-08-19 12:48:00,92.5,63.1,29.92,ESE,112,5.8,-999.0,38,-99.99,,,0.00,Acu-Link.com,2013-08-19 17:48:00,
2013-08-19 13:04:00,93.4,62.4,29.91,South,180,2.7,-999.0,36,-99.99,,,0.00,Acu-Link.com,2013-08-19 18:04:00,
2013-08-19 13:19:00,94.1,62.2,29.91,SSW,202,4.7,-999.0,35,-99.99,,,0.00,Acu-Link.com,2013-08-19 18:19:00,
2013-08-19 13:34:00,94.1,61.4,29.91,ESE,112,6.8,-999.0,34,-99.99,,,0.00,Acu-Link.com,2013-08-19 18:34:00,
2013-08-19 13:49:00,94.8,60.3,29.90,SE,135,2.2,-999.0,32,-99.99,,,0.00,Acu-Link.com,2013-08-19 18:49:00,
2013-08-19 14:04:00,93.9,60.4,29.89,ESE,112,3.7,-999.0,33,-99.99,,,0.00,Acu-Link.com,2013-08-19 19:04:00,
2013-08-19 14:19:00,91.9,59.5,29.89,SE,135,3.7,-999.0,34,-99.99,,,0.00,Acu-Link.com,2013-08-19 19:19:00,
2013-08-19 14:35:00,95.5,60.0,29.88,ESE,112,6.3,-999.0,31,-99.99,,,0.00,Acu-Link.com,2013-08-19 19:35:00,
2013-08-19 14:50:00,95.4,60.8,29.87,SE,135,4.7,-999.0,32,-99.99,,,0.00,Acu-Link.com,2013-08-19 19:50:00,
2013-08-19 15:05:00,95.4,61.7,29.86,ESE,112,5.8,-999.0,33,-99.99,,,0.00,Acu-Link.com,2013-08-19 20:05:00,
2013-08-19 15:20:00,94.8,61.2,29.86,ESE,112,5.3,-999.0,33,-99.99,,,0.00,Acu-Link.com,2013-08-19 20:20:00,
2013-08-19 15:35:00,95.2,61.5,29.85,ESE,112,5.3,-999.0,33,-99.99,,,0.00,Acu-Link.com,2013-08-19 20:35:00,
2013-08-19 15:51:00,92.8,61.9,29.85,South,180,2.7,-999.0,36,-99.99,,,0.00,Acu-Link.com,2013-08-19 20:51:00,
2013-08-19 16:06:00,96.3,62.5,29.84,West,270,2.7,-999.0,33,-99.99,,,0.00,Acu-Link.com,2013-08-19 21:06:00,
2013-08-19 16:21:00,93.0,62.1,29.84,East,90,4.7,-999.0,36,-99.99,,,0.00,Acu-Link.com,2013-08-19 21:21:00,
2013-08-19 16:37:00,95.0,62.2,29.84,SE,135,3.7,-999.0,34,-99.99,,,0.00,Acu-Link.com,2013-08-19 21:37:00,
2013-08-19 16:52:00,93.9,62.0,29.83,ESE,112,5.3,-999.0,35,-99.99,,,0.00,Acu-Link.com,2013-08-19 21:52:00,
2013-08-19 17:07:00,95.2,62.4,29.83,ESE,112,4.2,-999.0,34,-99.99,,,0.00,Acu-Link.com,2013-08-19 22:07:00,
2013-08-19 17:22:00,94.5,61.7,29.82,ESE,112,3.2,-999.0,34,-99.99,,,0.00,Acu-Link.com,2013-08-19 22:22:00,
2013-08-19 17:38:00,94.5,62.6,29.82,ESE,112,6.8,-999.0,35,-99.99,,,0.00,Acu-Link.com,2013-08-19 22:38:00,
2013-08-19 17:53:00,94.3,62.4,29.82,East,90,3.7,-999.0,35,-99.99,,,0.00,Acu-Link.com,2013-08-19 22:53:00,
2013-08-19 18:08:00,97.2,62.4,29.81,ESE,112,3.2,-999.0,32,-99.99,,,0.00,Acu-Link.com,2013-08-19 23:08:00,
2013-08-19 18:23:00,99.1,62.2,29.81,ESE,112,3.2,-999.0,30,-99.99,,,0.00,Acu-Link.com,2013-08-19 23:23:00,
2013-08-19 18:38:00,95.9,61.2,29.81,East,90,4.7,-999.0,32,-99.99,,,0.00,Acu-Link.com,2013-08-19 23:38:00,
2013-08-19 18:53:00,93.9,60.4,29.80,ESE,112,7.3,-999.0,33,-99.99,,,0.00,Acu-Link.com,2013-08-19 23:53:00,
2013-08-19 19:09:00,92.1,60.5,29.80,ENE,67,4.2,-999.0,35,-99.99,,,0.00,Acu-Link.com,2013-08-20 00:09:00,
2013-08-19 19:24:00,90.7,60.0,29.80,ESE,112,5.3,-999.0,36,-99.99,,,0.00,Acu-Link.com,2013-08-20 00:24:00,
2013-08-19 19:40:00,89.6,59.8,29.81,SE,135,3.2,-999.0,37,-99.99,,,0.00,Acu-Link.com,2013-08-20 00:40:00,
2013-08-19 19:55:00,88.3,59.4,29.81,ESE,112,2.2,-999.0,38,-99.99,,,0.00,Acu-Link.com,2013-08-20 00:55:00,
2013-08-19 20:10:00,86.9,59.6,29.82,East,90,2.2,-999.0,40,-99.99,,,0.00,Acu-Link.com,2013-08-20 01:10:00,
2013-08-19 20:25:00,85.3,59.6,29.82,East,90,2.2,-999.0,42,-99.99,,,0.00,Acu-Link.com,2013-08-20 01:25:00,
2013-08-19 20:41:00,84.4,59.4,29.82,East,90,2.7,-999.0,43,-99.99,,,0.00,Acu-Link.com,2013-08-20 01:41:00,
2013-08-19 20:56:00,83.5,59.3,29.82,East,90,2.7,-999.0,44,-99.99,,,0.00,Acu-Link.com,2013-08-20 01:56:00,
2013-08-19 21:11:00,82.8,59.9,29.83,East,90,2.2,-999.0,46,-99.99,,,0.00,Acu-Link.com,2013-08-20 02:11:00,
2013-08-19 21:26:00,82.0,59.8,29.84,ENE,67,2.7,-999.0,47,-99.99,,,0.00,Acu-Link.com,2013-08-20 02:26:00,
2013-08-19 21:41:00,81.9,59.7,29.84,ENE,67,2.2,-999.0,47,-99.99,,,0.00,Acu-Link.com,2013-08-20 02:41:00,
2013-08-19 21:57:00,81.3,59.1,29.84,NE,45,2.7,-999.0,47,-99.99,,,0.00,Acu-Link.com,2013-08-20 02:57:00,
2013-08-19 22:12:00,81.1,58.9,29.84,East,90,2.2,-999.0,47,-99.99,,,0.00,Acu-Link.com,2013-08-20 03:12:00,
2013-08-19 22:27:00,80.2,58.7,29.85,ESE,112,2.7,-999.0,48,-99.99,,,0.00,Acu-Link.com,2013-08-20 03:27:00,
2013-08-19 22:43:00,79.2,58.9,29.85,East,90,2.7,-999.0,50,-99.99,,,0.00,Acu-Link.com,2013-08-20 03:43:00,
2013-08-19 22:58:00,78.4,58.8,29.85,ESE,112,2.2,-999.0,51,-99.99,,,0.00,Acu-Link.com,2013-08-20 03:58:00,
2013-08-19 23:13:00,77.7,58.7,29.86,ESE,112,2.7,-999.0,52,-99.99,,,0.00,Acu-Link.com,2013-08-20 04:13:00,
2013-08-19 23:29:00,77.0,58.5,29.86,East,90,2.7,-999.0,53,-99.99,,,0.00,Acu-Link.com,2013-08-20 04:29:00,
2013-08-19 23:44:00,76.6,58.2,29.85,East,90,2.2,-999.0,53,-99.99,,,0.00,Acu-Link.com,2013-08-20 04:44:00,
2013-08-19 23:59:00,76.5,58.6,29.86,East,90,5.3,-999.0,54,-99.99,,,0.00,Acu-Link.com,2013-08-20 04:59:00,